Simultaneous Nadir Overpasses (SNOs) Predictions

Prediction of SNOs between GOES-17 and AQUA Satellite Orbit:

Table of predicted SNOs for the next 14.0 days since TLE Epoch: 7/21/2023
Index Date Time (GOES-17) GOES-17 Lat,Lon AQUA Lat,Lon Distance(km) Time Diff (sec)
1 07/22/2023 08:45:49 0.01,-104.73 -0.15,-104.00 82.87 80
2 07/22/2023 21:06:40 -0.01,-104.70 -0.95,-109.05 494.63 80
3 07/24/2023 08:31:33 0.01,-104.73 -0.89,-100.52 478.66 80
4 07/24/2023 20:52:24 -0.01,-104.70 -0.20,-105.57 98.66 80
5 07/26/2023 20:40:47 -0.01,-104.70 0.53,-102.08 297.31 80
6 07/27/2023 09:01:30 0.02,-104.73 0.53,-107.10 270.43 80
7 07/29/2023 08:44:33 0.02,-104.72 -0.24,-103.62 125.15 80
8 07/29/2023 21:05:24 -0.03,-104.68 -0.88,-108.67 452.89 80
9 07/31/2023 20:51:06 -0.03,-104.67 -0.13,-105.18 57.27 80
10 08/02/2023 20:39:27 -0.04,-104.66 0.59,-101.68 338.70 80
11 08/03/2023 09:00:10 0.04,-104.69 0.45,-106.70 228.50 80
